Location: Mauz�-Thouarsais
(46.9761°N, 0.2785°W)
Time: 02:05:31
(UTC+00:00)

Daily predictions for brighter satellites

Satellite Brightness Start Highest point End
(mag) Time Altitude Azimuth Time Altitude Azimuth Time Altitude Azimuth
CENTAUR R/B 4.5 01:54:00 10° NW 02:00:50 33° NNE 02:08:26 10° E
Cosmos 2360 Rocket 4.5 02:10:23 10° N 02:22:23 - ESE 02:12:07 18° N
ADEOS II 4.3 02:15:52 10° NNE 02:17:29 20° NNE 02:17:29 20° NNE
USA 234 4.4 02:20:38 10° ESE 02:24:09 34° E 02:24:09 34° E
Lacrosse 5 4.3 02:40:09 17° E 02:40:09 17° E 02:41:29 10° E
Cosmos 2082 Rocket 4.0 02:42:36 24° N 02:42:36 24° N 02:45:06 10° NNE
Cosmos 2333 Rocket 4.3 02:39:06 10° N 02:43:44 24° NE 02:48:21 10° E
Cosmos 2219 Rocket 4.2 02:54:07 10° N 02:58:47 25° NE 03:03:27 10° ESE
CZ-2C R/B 4.3 02:58:08 10° NE 03:01:50 22° E 03:02:02 22° E
CZ-2D R/B 4.4 03:05:51 10° N 03:06:50 14° NNW 03:06:50 14° NNW
USA 238 DEB 4.3 03:05:46 10° NW 03:12:54 60° NE 03:20:20 10° ESE
USA 238 4.3 03:05:53 10° NW 03:13:00 60° NE 03:20:26 10° ESE
S3M 4.2 03:21:13 60° SE 03:21:55 64° E 03:28:03 10° NNE
ARIANE 5 R/B 3.4 03:20:00 10° NNE 03:23:22 43° N 03:23:22 43° N
Cosmos 1745 Rocket 4.0 03:19:06 10° N 03:25:26 77° E 03:26:32 62° SE
USA 267 3.2 03:28:47 10° NE 03:35:18 70° NNW 03:35:57 66° WNW
Cosmos 2322 4.4 03:30:36 10° NNW 03:36:10 52° ENE 03:41:42 10° SE
Resurs 1-4 Rocket 4.5 03:38:16 10° NNW 03:38:34 11° NNW 03:38:34 11° NNW
NOSS 3-2 (A) 3.9 03:34:11 10° NW 03:41:43 88° SW 03:50:16 10° SE
H-2A R/B 4.4 03:39:15 10° ESE 03:42:31 23° ENE 03:45:46 10° NNE
Spot 4 Rocket 4.0 03:41:38 10° NNE 03:46:28 78° N 03:46:28 78° N
Cosmos 2344 3.4 03:46:42 51° SSW 03:48:50 85° SE 03:56:49 10° NE
COSMOS 2487 4.4 03:50:12 28° ENE 03:50:12 28° ENE 03:52:10 10° NE
Cosmos 1833 4.2 03:48:29 68° S 03:49:08 78° ESE 03:54:47 10° NNE
Cosmos 1386 Rocket 4.4 03:46:02 10° NNW 03:52:25 72° W 03:53:42 56° SSW
CENTAUR R/B 3.2 03:44:40 10° NW 03:52:45 80° NE 04:01:41 10° SE
Cosmos 2251 Rocket 3.8 03:53:53 47° SSE 03:55:17 64° ESE 04:00:37 10° NNE
ISS -2.0 04:00:40 33° ENE 04:00:40 33° ENE 04:02:51 10° E
Cosmos 2360 Rocket 4.2 04:04:24 14° S 04:04:24 14° S 04:05:10 10° S
ADEOS II 4.0 03:56:42 10° NNW 03:58:26 16° NNW 03:58:26 16° NNW
IDEFIX/ARIANE 42P 3.7 03:57:17 10° N 04:00:30 28° NW 04:00:30 28° NW
ALOS 3.3 03:58:47 10° NNE 04:03:16 44° E 04:07:02 14° SSE
PAYLOAD A 4.0 03:58:13 10° NNE 04:03:35 89° W 04:05:04 50° SSW
CZ-2C R/B 3.8 04:01:45 10° N 04:04:15 38° N 04:04:15 38° N
Cosmos 2237 Rocket 4.2 04:01:46 10° N 04:06:36 27° NE 04:11:23 10° ESE
Cosmos 2333 4.1 04:01:31 10° NNW 04:07:21 86° WSW 04:13:08 10° SSE
USA 234 3.3 04:03:53 10° SSE 04:10:12 51° SW 04:11:34 44° W
CZ-4C R/B 3.0 04:10:13 24° S 04:12:44 43° ESE 04:18:10 10° NE
Cosmos 883 Rocket 4.3 04:11:11 28° SSW 04:14:39 82° W 04:20:49 10° N
USA 276 3.2 04:16:02 45° E 04:16:02 45° E 04:18:23 10° ENE
PSLV R/B 3.6 04:11:34 10° NNE 04:15:59 80° ESE 04:17:21 44° S
GENESIS II 4.3 04:17:05 68° NNW 04:17:05 68° NNW 04:20:47 10° NE
Lacrosse 5 1.8 04:19:24 57° WSW 04:19:54 60° SW 04:24:52 10° SE
NOSS 3-4 (A) 4.2 04:16:30 17° S 04:20:43 47° ESE 04:26:39 10° NE
NOSS 3-4 (C) 4.2 04:16:34 17° S 04:20:50 47° ESE 04:26:45 10° NE
NOSS 3-2 (C) 4.0 04:16:13 10° NW 04:23:46 80° SW 04:32:20 10° SSE
Cosmos 2082 Rocket 4.4 04:24:26 11° NW 04:25:26 11° NNW 04:27:07 10° NNW
Cosmos 2333 Rocket 2.1 04:22:50 10° NNW 04:28:37 74° WSW 04:34:20 10° SSE
Cosmos 2221 4.0 04:30:19 23° NW 04:30:19 23° NW 04:32:41 10° NNW
Cosmos 1484 Rocket 2.9 04:29:12 10° NNE 04:32:55 67° ESE 04:35:27 19° S
Cosmos 1805 Rocket 3.5 04:28:59 10° NNW 04:33:24 61° W 04:37:47 10° S
Cosmos 1437 Rocket 4.3 04:30:14 10° SSE 04:34:00 38° E 04:37:44 10° NNE
ATLAS 2AS CENTAUR R/B 3.9 04:28:29 10° S 04:35:57 48° ESE 04:43:22 10° NE
Landsat 5 3.1 04:32:49 10° S 04:36:37 64° WSW 04:40:32 10° NNW
Cosmos 2315 Rocket 3.9 04:34:41 14° SSW 04:40:04 65° WNW 04:46:16 10° N
CZ-2C R/B 2.6 04:35:47 10° N 04:40:18 45° WNW 04:41:25 37° WSW
CZ-4B R/B 3.6 04:38:18 10° SE 04:40:54 26° ENE 04:43:30 10° NNE
Cosmos 2297 Rocket 4.3 04:37:09 10° SSE 04:41:43 26° ESE 04:46:18 10° NE
COSMO-SKYMED 1 3.8 04:37:45 10° SE 04:41:52 44° ENE 04:46:00 10° N
Cosmos 2219 Rocket 2.1 04:37:36 10° NNW 04:43:13 66° WSW 04:48:50 10° SSE
Cosmos 1782 3.9 04:40:12 10° SSE 04:43:57 44° E 04:47:45 10° NNE
Cosmos 1606 3.3 04:47:58 36° WNW 04:47:58 36° WNW 04:51:34 10° N
CBERS 1 LM4 rocket 4.3 04:43:14 10° NNE 04:48:03 88° ESE 04:52:47 10° SSW
Cosmos 1140 Rocket 4.0 04:44:12 10° S 04:49:19 62° ESE 04:54:27 10° NNE
Sich 1 3.1 04:45:43 10° NNW 04:50:02 53° W 04:54:17 10° S
Cosmos 1980 4.4 04:46:18 10° NNW 04:51:53 55° ENE 04:57:27 10° SE
METEOR-M 4.1 04:48:42 10° NNE 04:54:04 85° WNW 04:59:25 10° SSW
Cosmos 1666 Rocket 3.4 04:52:50 10° NNW 04:57:13 73° W 05:01:36 10° S
Cosmos 2074 Rocket 4.0 04:51:48 10° N 04:58:02 87° E 05:04:15 10° S
COSMOS 2428 2.7 04:54:16 10° NW 04:59:52 58° WSW 05:05:27 10° S
BREEZE M DEB (TANK) 2.3 04:59:34 30° WNW 05:00:53 80° NNE 05:07:23 10° ESE
MOS 1 Rocket 3.4 04:56:33 10° SSE 05:00:56 76° ENE 05:05:37 10° N
SeaSat 1 2.5 04:56:29 10° SE 05:01:24 80° ENE 05:06:22 10° NNW
BREEZE-M DEB (TANK) 2.9 05:00:37 23° W 05:03:10 58° N 05:05:39 10° ENE
ARIANE 5 R/B 4.2 05:00:51 10° NNW 05:03:27 14° NW 05:03:43 14° WNW
ATLAS 5 CENTAUR R/B 1.4 05:00:50 19° SW 05:03:38 87° SE 05:08:08 10° NE
USA 238 DEB 4.3 04:57:03 10° NW 05:03:41 39° WSW 05:10:34 10° S
USA 238 4.3 04:57:09 10° NW 05:03:48 39° WSW 05:10:41 10° S
CZ-4C R/B 3.9 05:04:28 27° WNW 05:04:28 27° WNW 05:06:59 10° NW
Cosmos 2154 Rocket 4.4 04:59:15 10° N 05:05:29 67° E 05:11:43 10° SSE
ATLAS 3B R/B 3.4 05:00:54 10° NW 05:07:45 58° NE 05:14:54 10° ESE
CZ-4B R/B 3.6 05:05:02 10° NNE 05:08:44 86° ESE 05:12:22 10° SSW
ADEOS 3.6 05:04:06 10° NNE 05:09:22 88° ESE 05:14:36 10° SSW
Cosmos 1602 3.6 05:07:02 10° NNW 05:10:57 67° W 05:14:49 10° S
FENGYUN 3A 4.0 05:10:00 10° N 05:15:08 44° WNW 05:20:15 10° SW
USA 267 4.1 05:11:47 10° NE 05:17:46 40° N 05:23:18 12° WNW
H-2A R/B 2.4 05:14:22 10° SSW 05:18:18 38° W 05:22:12 10° NNW
Meteor 1-25 Rocket 4.4 05:13:09 10° NNW 05:18:28 48° W 05:23:46 10° SSW
Cosmos 1151 Rocket 3.0 05:15:24 10° SSW 05:19:39 61° WNW 05:23:55 10° N
Cosmos 909 Rocket 4.2 05:14:58 12° SW 05:20:58 58° NW 05:27:12 10° NNE
Cosmos 2219 4.2 05:15:59 10° S 05:21:25 50° ESE 05:26:51 10° NE
NOSS 0 Rocket 3.9 05:17:38 10° NNW 05:23:45 66° WSW 05:29:53 10° SSE
COSMOS 2487 4.2 05:23:34 15° WNW 05:24:03 15° NW 05:26:08 10° NNW
Cosmos 2184 Rocket 4.0 05:18:42 10° NNW 05:24:57 63° W 05:31:13 10° S
Cosmos 1633 Rocket 3.4 05:24:06 10° NNW 05:28:15 42° W 05:32:21 10° SSW
SKYMED 2 3.6 05:25:35 10° S 05:29:52 60° W 05:34:11 10° NNW
Geosat 4.5 05:28:04 10° NNE 05:32:48 42° NW 05:37:30 10° WSW
H-2A R/B 3.0 05:29:57 10° NNE 05:33:53 75° E 05:37:45 10° S
Cosmos 1242 Rocket 2.9 05:31:23 10° S 05:34:47 64° E 05:38:16 10° NNE
ISS -3.2 05:33:39 13° WNW 05:36:23 42° SW 05:39:35 10° SE
Cosmos 1933 4.5 05:34:42 10° SW 05:38:02 24° WNW 05:41:22 10° NNW
Cosmos 1812 2.8 05:36:09 10° S 05:39:59 83° E 05:43:51 10° N
ALOS 3.4 05:36:42 10° N 05:40:26 24° WNW 05:44:10 10° WSW
CZ-2C R/B 3.7 05:36:37 10° SE 05:42:04 53° ENE 05:47:29 10° N
CENTAUR R/B 3.9 05:36:01 10° NW 05:43:06 32° WSW 05:50:35 10° S
BREEZE-M DEB (TANK) 3.5 05:42:19 10° NW 05:44:06 24° N 05:46:16 10° ENE
Meteor 1-31 Rocket 3.3 05:41:49 10° N 05:45:24 36° WNW 05:48:55 10° SW
Meteor 1-14 Rocket 4.3 05:40:41 10° NNW 05:46:14 57° W 05:51:52 10° S
Cosmos 1954 Rocket 4.0 05:42:44 10° SSW 05:48:00 78° WNW 05:53:17 10° NNE
RESURS DK-1 2.7 05:44:17 10° SSW 05:48:22 70° ESE 05:52:30 10° NNE
SAR-Lupe-4 3.8 05:47:10 10° SSE 05:50:43 74° ENE 05:54:18 10° N
Cosmos 2237 Rocket 2.3 05:45:28 10° NNW 05:51:04 60° WSW 05:56:36 10° S
Cosmos 1869 Rocket 4.5 05:46:46 10° N 05:51:11 56° ENE 05:55:35 10° SSE
USA 276 2.7 05:48:23 10° W 05:51:31 47° N 05:54:38 10° ENE
Cosmos 407 Rocket 4.1 05:49:16 10° SW 05:54:00 35° WNW 05:58:44 10° N
Timation 2 Rocket 4.3 05:52:06 10° SSW 05:59:00 87° ESE 06:05:46 10° NNE
Meteor 1-5 Rocket 4.4 05:53:14 10° NNW 05:59:04 68° W 06:04:59 10° S
PSLV R/B 4.0 05:56:04 10° S 06:00:14 66° WSW 06:04:23 10° NNW
CZ-4C R/B 2.8 05:56:26 10° WSW 06:01:18 40° NW 06:07:07 10° NNE
Meteor 2-6 Rocket 4.3 05:56:09 10° SSW 06:02:06 75° WNW 06:07:58 10° N
